Location: Aragoneses
(41.0275°N, 4.3847°W)
Time: 08:47:54
(UTC+00:00)

ARIANE 6 FM1 Upper Stage - Visible Passes

Search period start: 09 February 2026 00:00
Search period end: 19 February 2026 00:00
Orbit: 522 x 609 km, 62.0° (Epoch: 8 February)

Date Brightness Start Highest point End Pass type
(mag) Time Alt. Az. Time Alt. Az. Time Alt. Az.
12 Feb 5.0 19:20:25 10° NNE 19:20:45 11° NNE 19:20:45 11° NNE visible
13 Feb 4.6 19:19:39 10° N 19:21:05 14° NNE 19:21:05 14° NNE visible
14 Feb 4.2 19:19:11 10° N 19:21:31 19° NNE 19:21:31 19° NNE visible
15 Feb 3.7 19:18:51 10° NNW 19:22:02 27° NE 19:22:02 27° NE visible
15 Feb 5.7 20:57:45 10° WNW 20:58:05 12° WNW 20:58:05 12° WNW visible
16 Feb 3.0 19:18:36 10° NNW 19:22:19 38° NE 19:22:42 37° ENE visible
16 Feb 5.7 20:58:09 10° WNW 20:58:44 13° WNW 20:58:44 13° WNW visible
17 Feb 2.6 19:18:26 10° NNW 19:22:20 57° NE 19:23:32 38° ESE visible
17 Feb 5.7 20:58:57 10° W 20:59:36 12° W 20:59:36 12° W visible
18 Feb 2.4 19:18:20 10° NW 19:22:17 86° NE 19:24:35 24° SE visible
